User: anonymous   Login
Location: Columbia
(38.9520°N, 92.3340°W)
Time: 19:22:57
(UTC-05:00)
Language:

Cosmos 2100 Rocket - Orbit

View from above orbital plane
View from above orbital plane
View from above satellite
View from above satellite

Ground track
Ground track

The orbit data is extracted from the following two-line orbital elements,

1 20805U 90083B   16182.94647156 +.00000066 +00000-0 +53191-4 0  9990
2 20805 082.9375 321.7063 0029312 295.8070 181.4227 13.75805520294838
Epoch (UTC): 30 June 2016 22:42:55
Eccentricity: 0.0029312
inclination: 82.9375°
perigee height: 957 km
apogee height: 1000 km
right ascension of ascending node: 321.7063°
argument of perigee: 295.8070°
revolutions per day: 13.75805520
mean anomaly at epoch: 181.4227°
orbit number at epoch: 29483

The dashed part of the orbit path shows where the satellite is in the earth's shadow,  

DLR